Regional Weather Roundup
Issued by NWS

Home | Current Version | Previous Version | Graphics & Text | Print | Product List | Glossary On
Versions: 1 2 3 4 5 6 7 8 9 10 11 12 13 14 15 16 17 18 19 20 21 22 23 24 25 26 27 28 29 30 31 32 33 34 35 36 37 38 39 40 41 42 43 44 45 46 47 48 49 50
941
ASUS43 KOAX 290910
RWRNE

WEATHER ROUNDUP FOR NEBRASKA
NATIONAL WEATHER SERVICE OMAHA NE
400 AM CDT SAT APR 29 2017

NOTES: SATELLITE DATA IS BEING USED TO AUGMENT CLOUD COVER ABOVE
       12000 FEET.
       "FAIR" INDICATES FEW OR NO CLOUDS BELOW 12,000 FEET WITH NO
       SIGNIFICANT WEATHER AND/OR OBSTRUCTIONS TO VISIBILITY.

  * THESE STATIONS DO NOT REPORT WEATHER SUCH AS RAIN...SNOW OR FOG.

NEZ001>004-019>022-054>056-291000-
NEBRASKA PANHANDLE

CITY           SKY/WX    TMP DP  RH WIND       PRES   REMARKS
SCOTTSBLUFF    CLOUDY    33  28  81 N9        30.13F WCI  25
ALLIANCE       CLOUDY    33  29  85 N8        30.12F WCI  26
CHADRON        CLOUDY    33  29  85 CALM      30.19S
KIMBALL        FLURRIES  32  31  96 N6        30.10S WCI  26
SIDNEY         CLOUDY    33  30  88 N10       30.10F WCI  25
$$

NEZ057>060-069>072-079>082-291000-
SOUTHWEST NEBRASKA

CITY           SKY/WX    TMP DP  RH WIND       PRES   REMARKS
NORTH PLATTE   CLOUDY    39  31  72 NE13      30.07F WCI  31
IMPERIAL       CLOUDY    37  32  82 N15       30.04F WCI  28
LEXINGTON      CLOUDY    39  33  78 N12G17    30.05F WCI  32
MCCOOK         CLOUDY    38  33  82 NE17      30.01F WCI  28
OGALLALA       CLOUDY    39  32  76 NE12G18   30.07F WCI  32
$$

NEZ005>010-023>029-035>040-094-291000-
NORTH CENTRAL NEBRASKA

CITY           SKY/WX    TMP DP  RH WIND       PRES   REMARKS
VALENTINE      CLOUDY    41  21  44 NE6       30.17R
AINSWORTH      CLOUDY    38  28  66 N8        30.15S WCI  32
BROKEN BOW     CLOUDY    40  32  73 N10       30.07S WCI  33
O`NEILL        CLOUDY    38  27  64 N9        30.13R WCI  32
ORD            CLOUDY    40  31  70 N12       30.07S WCI  33
THEDFORD       CLOUDY    40  29  66 NE13      30.11F WCI  32
$$

NEZ041-046>049-061>064-073>077-083>087-291000-
SOUTH CENTRAL NEBRASKA

CITY           SKY/WX    TMP DP  RH WIND       PRES   REMARKS
GRAND ISLAND   CLOUDY    40  37  89 N14       30.03S WCI  32
AURORA         CLOUDY    40  37  86 N16       30.01S WCI  32
HASTINGS       CLOUDY    40  35  83 N20       29.99F WCI  30
HEBRON         CLOUDY    41  37  84 NE20G25   29.96S
HOLDREGE       CLOUDY    38  35  87 N13       30.05R WCI  30
KEARNEY *      CLOUDY    39  34  81 N14       30.04S WCI  31
YORK           CLOUDY    41  37  87 N17       30.02R
$$

NEZ011>018-030>034-042>045-291000-
NORTHEAST NEBRASKA

CITY           SKY/WX    TMP DP  RH WIND       PRES   REMARKS
NORFOLK        CLOUDY    41  31  67 N10       30.07S
ALBION         CLOUDY    42  32  68 N10       30.07R
BLAIR          CLOUDY    43  36  75 NE16G23   30.01R
FREMONT        CLOUDY    42  36  76 N7        30.04S
TEKAMAH        CLOUDY    42  37  82 N12       30.07R
WAYNE          CLOUDY    39  33  79 N9        30.08R WCI  33
$$

NEZ050>053-065>068-078-088>093-291000-
SOUTHEAST NEBRASKA

CITY           SKY/WX    TMP DP  RH WIND       PRES   REMARKS
LINCOLN        CLOUDY    43  37  79 NE16      30.04R
OMAHA EPPLEY   CLOUDY    44  34  67 NE17G23   30.03R
BEATRICE       CLOUDY    43  38  84 NE20      29.97S
FALLS CITY     CLOUDY    43  40  89 NE13G23   29.95S
NEBRASKA CITY  CLOUDY    42  38  83 NE17      30.01R
PLATTSMOUTH    CLOUDY    42  35  74 NE12      30.02R
$$

NEZ044-045-051>053-067-291000-
OMAHA AREA

CITY           SKY/WX    TMP DP  RH WIND       PRES   REMARKS
OMAHA EPPLEY   CLOUDY    44  34  67 NE17G23   30.03R
BLAIR          CLOUDY    43  36  75 NE16G23   30.01R
FREMONT        CLOUDY    42  36  76 N7        30.04S
MILLARD        CLOUDY    46  37  70 N7        30.03R
OFFUTT AFB     CLOUDY    43  36  76 NE9G21    30.01R
PLATTSMOUTH    CLOUDY    42  35  74 NE12      30.02R
WAHOO          CLOUDY    42  36  78 N14G20    30.04R
$$




USA.gov is the U.S. government's official web portal to all federal, state and local government web resources and services.